Flag for Belgium Weather past 2 weeks in Brussels, Belgium

54 °F


Feels Like: 52 °F
Forecast: 59 / 67 °F
Wind: 6 mph from South

Location: Brussels National Airport

Current Time: Oct 5, 2015 at 2:11:15 AM

Latest Report: Oct 5, 2015 at 1:20 AM

Visibility: 10 mi

Pressure: 29.95 "Hg

Humidity: 88%

Dew point: 50 °F

Location of BrusselsLocation

Historic Weather in Brussels — Graph


Brussels temperature yesterday

Maximum temperature yesterday: 64 °F (at 2:50 PM)
Minimum temperature yesterday: 46 °F (at 1:50 AM)
Average temperature yesterday: 54 °F

Past Weeks' High & Low Weather Summary

High68 °F (Oct 3, 4:20 PM)100% (Sep 23, 4:50 AM)30.63 "Hg (Sep 23, 4:50 AM)
Low37 °F (Oct 2, 5:20 AM)45% (Sep 30, 2:20 PM)29.50 "Hg (Sep 22, 2:20 PM)
Average53 °F79%30.19 "Hg
* Reported Sep 20 12:20 AM — Oct 5 12:50 AM, Brussels, Weather by CustomWeather, © 2015

Note: Actual official high and low records may vary slightly from our data, if they occured in-between our weather recording intervals... More about our weather records


Brussels weather history for previous 24 hours

Time TempWeatherWind HumidityBarometerVisibility
12:50 AM
Mon, Oct 5
54 °FClear.5 mph88%29.95 "Hg10 mi
12:20 AM54 °FClear.5 mph88%29.95 "Hg10 mi
11:50 PM
Sun, Oct 4
54 °FClear.5 mph88%29.95 "Hg10 mi
10:50 PM54 °FClear.7 mph82%29.95 "Hg10 mi
10:20 PM52 °FPassing clouds.5 mph82%29.95 "HgN/A
9:50 PM52 °FClear.3 mph82%29.98 "Hg10 mi
9:20 PM50 °FPassing clouds.2 mph88%29.98 "HgN/A
8:50 PM52 °FClear.1 mph82%29.98 "Hg10 mi
8:20 PM54 °FClear.1 mph82%29.95 "Hg10 mi
7:50 PM52 °FSunny.2 mph82%29.95 "Hg10 mi
7:20 PM55 °FSunny.2 mph72%29.95 "Hg10 mi
6:50 PM59 °FSunny.3 mph63%29.95 "Hg10 mi
6:20 PM63 °FPassing clouds.6 mph56%29.98 "HgN/A
5:50 PM63 °FPassing clouds.6 mph56%29.98 "HgN/A
5:20 PM64 °FPassing clouds.7 mph52%29.98 "HgN/A
4:50 PM64 °FPassing clouds.8 mph52%29.98 "HgN/A
4:20 PM64 °FPassing clouds.7 mph52%29.98 "HgN/A
3:50 PM64 °FPassing clouds.6 mph56%29.98 "HgN/A
3:20 PM64 °FPassing clouds.3 mph64%29.98 "HgN/A
2:50 PM64 °FPassing clouds.5 mph60%30.01 "HgN/A
2:20 PM63 °FPassing clouds.7 mph64%30.01 "HgN/A
1:50 PM63 °FPassing clouds.7 mph68%30.01 "HgN/A
1:20 PM61 °FPassing clouds.6 mph72%30.01 "Hg6 mi
12:50 PM61 °FPassing clouds.7 mph68%30.01 "Hg6 mi
12:20 PM61 °FPassing clouds.6 mph72%30.01 "Hg5 mi
11:50 AM59 °FPassing clouds.3 mph77%30.01 "Hg5 mi
11:20 AM57 °FFog.5 mph82%30.01 "Hg3 mi
10:50 AM55 °FFog.3 mph82%30.01 "Hg3 mi
10:20 AM54 °FFog.3 mph82%30.01 "Hg3 mi
9:50 AM52 °FClear.6 mph88%30.01 "Hg4 mi
9:20 AM50 °FFog.6 mph88%30.01 "Hg3 mi
8:50 AM46 °FFog.6 mph93%30.01 "Hg3 mi
8:20 AM46 °FFog.6 mph87%30.01 "Hg3 mi
7:50 AM46 °FFog.5 mph87%30.01 "Hg3 mi
7:20 AM46 °FClear.6 mph93%29.98 "Hg4 mi
6:50 AM46 °FClear.7 mph93%29.98 "Hg10 mi
6:20 AM46 °FClear.6 mph87%29.98 "Hg10 mi
5:50 AM46 °FClear.6 mph87%29.98 "Hg10 mi
5:20 AM46 °FClear.3 mph93%29.98 "Hg10 mi
4:50 AM48 °FClear.No wind87%29.95 "Hg6 mi
4:20 AM46 °FClear.2 mph93%29.98 "Hg6 mi
3:50 AM46 °FClear.3 mph93%29.98 "Hg6 mi
3:20 AM46 °FClear.3 mph93%29.98 "Hg5 mi
2:50 AM46 °FClear.3 mph93%29.98 "Hg5 mi
2:20 AM46 °FClear.5 mph93%29.95 "Hg5 mi
Weather by CustomWeather, © 2015

See weather overviewHow to use our weather pages